Weather History for LTCG - January, 2013

Change the Weather History Date:

Tuesday, January 8, 2013

  Actual Average Record
Temperature  
Mean Temperature 38 °F -  
Max Temperature 42 °F 49 °F 69 °F (2003)
Min Temperature 33 °F 39 °F 30 °F (2015)
Degree Days  
Heating Degree Days 28    
Moisture  
Dew Point 32 °F    
Average Humidity 77    
Maximum Humidity 93    
Minimum Humidity 47    
Precipitation  
Precipitation 0.04 in - - ()
Sea Level Pressure  
Sea Level Pressure 29.87 in    
Wind  
Wind Speed 9 mph ()    
Max Wind Speed 16 mph    
Max Gust Speed -    
Visibility 5.7 miles    
Events Rain , Snow    
Averages and records for this station are not official NWS values.
T = Trace of Precipitation, MM = Missing Value Source: Averaged Metar Reports

Daily Weather History Graph

Daily Weather History Graph

Search for Another Location

Airport or City:

Trip Planner

Search our weather history database for the weather conditions in past years. The results will help you decide how hot, cold, wet, or windy it might be!

Date:

Astronomy

Jan. 08, 2013 Rise Set
Actual Time 6:45 AM EET 4:09 PM EET
Civil Twilight 6:14 AM EET 4:40 PM EET
Nautical Twilight 5:40 AM EET 5:14 PM EET
Astronomical Twilight 5:07 AM EET 5:47 PM EET
Moon 2:53 AM EET (1/8) 12:52 PM EET (1/8)
Length of Visible Light 10h 25m
Length of Day
9h 24m
Waning Crescent, 16% of the Moon is Illuminated
Jan 8
Waning Crescent
Jan 11
New
Jan 19
First Quarter
Jan 27
Full
Feb 3
Last Quarter

Hourly Weather History & Observations

Time (EET) Temp. Windchill Dew Point Humidity Pressure Visibility Wind Dir Wind Speed Gust Speed Precip Events Conditions
12:20 AM 39.2 °F 33.6 °F 35.6 °F 87% 29.74 in 6.2 mi WSW 8.1 mph - N/A Rain Light Rain Showers
12:50 AM 39.2 °F 33.0 °F 35.6 °F 87% 29.74 in 6.2 mi SW 9.2 mph - N/A Rain Light Rain Showers
1:20 AM 39.2 °F 33.6 °F 35.6 °F 87% 29.74 in 6.2 mi WSW 8.1 mph - N/A Rain Light Rain Showers
1:50 AM 39.2 °F 33.0 °F 35.6 °F 87% 29.77 in 6.2 mi WSW 9.2 mph - N/A Rain Light Rain Showers
2:00 AM 39 °F - 35 °F 78% 29.78 in 6 mi WSW 9.2 mph - - Rain Light Rain Showers
2:20 AM 39.2 °F 31.6 °F 33.8 °F 81% 29.77 in 6.2 mi West 12.7 mph - N/A Rain Light Rain Showers
2:50 AM 39.2 °F 31.2 °F 33.8 °F 81% 29.77 in 6.2 mi West 13.8 mph - N/A Rain Light Rain Showers
3:20 AM 39.2 °F 33.0 °F 33.8 °F 81% 29.77 in 6.2 mi WSW 9.2 mph - N/A Rain Light Rain Showers
3:50 AM 39.2 °F 31.6 °F 33.8 °F 81% 29.77 in 6.2 mi WSW 12.7 mph - N/A Rain Light Rain Showers
4:20 AM 37.4 °F 29.8 °F 33.8 °F 87% 29.77 in 6.2 mi SW 11.5 mph - N/A Rain Light Rain Showers
4:50 AM 39.2 °F 32.5 °F 33.8 °F 81% 29.80 in 6.2 mi SW 10.4 mph - N/A Rain Light Rain Showers
5:20 AM 39.2 °F 31.2 °F 32.0 °F 75% 29.80 in 6.2 mi WSW 13.8 mph - N/A   Mostly Cloudy
5:50 AM 39.2 °F 32.0 °F 32.0 °F 75% 29.80 in 6.2 mi West 11.5 mph - N/A   Mostly Cloudy
6:20 AM 39.2 °F 31.2 °F 32.0 °F 75% 29.83 in 6.2 mi WSW 13.8 mph - N/A   Mostly Cloudy
6:50 AM 37.4 °F 28.9 °F 33.8 °F 87% 29.83 in 5.6 mi West 13.8 mph - N/A Rain Light Rain Showers
7:20 AM 39.2 °F 32.5 °F 32.0 °F 75% 29.86 in 6.2 mi WSW 10.4 mph - N/A Rain Light Rain Showers
7:50 AM 37.4 °F 30.3 °F 32.0 °F 81% 29.86 in 3.7 mi WSW 10.4 mph - N/A Rain Rain Showers
8:00 AM 38 °F - 32 °F 72% 29.86 in 4 mi SW 10.4 mph - - Rain Heavy Rain Showers
8:20 AM 39.2 °F 31.6 °F 32.0 °F 75% 29.86 in 6.2 mi WSW 12.7 mph - N/A Rain Light Rain Showers
8:50 AM 41.0 °F 33.9 °F 30.2 °F 65% 29.86 in 6.2 mi WSW 12.7 mph - N/A   Mostly Cloudy
9:20 AM 41.0 °F 34.3 °F 30.2 °F 65% 29.86 in 6.2 mi WSW 11.5 mph - N/A   Mostly Cloudy
9:50 AM 41.0 °F 34.3 °F 30.2 °F 65% 29.89 in 6.2 mi West 11.5 mph - N/A   Mostly Cloudy
10:20 AM 41.0 °F 33.5 °F 30.2 °F 65% 29.89 in 6.2 mi WNW 13.8 mph - N/A Rain Light Rain Showers
10:50 AM 39.2 °F 35.0 °F 32.0 °F 75% 29.89 in 5.6 mi North 5.8 mph - N/A Rain Light Rain Showers
11:20 AM 41.0 °F 33.5 °F 28.4 °F 61% 29.86 in 6.2 mi West 13.8 mph - N/A   Mostly Cloudy
11:50 AM 42.8 °F 35.8 °F 30.2 °F 61% 29.89 in 6.2 mi West 13.8 mph - N/A   Mostly Cloudy
12:20 PM 41.0 °F 32.8 °F 32.0 °F 70% 29.89 in 5.6 mi West 16.1 mph - N/A Rain Light Rain Showers
12:50 PM 41.0 °F 33.5 °F 30.2 °F 65% 29.89 in 6.2 mi West 13.8 mph - N/A Rain Light Rain Showers
1:20 PM 41.0 °F 35.2 °F 30.2 °F 65% 29.89 in 6.2 mi WSW 9.2 mph - N/A   Mostly Cloudy
1:50 PM 41.0 °F 35.2 °F 28.4 °F 61% 29.89 in 6.2 mi West 9.2 mph - N/A   Mostly Cloudy
2:00 PM 42 °F - 29 °F 47% 29.90 in 9 mi West 9.2 mph - -   Partly Cloudy
2:20 PM 42.8 °F 38.0 °F 26.6 °F 53% 29.89 in 6.2 mi West 8.1 mph - N/A   Mostly Cloudy
2:50 PM 41.0 °F 32.8 °F 33.8 °F 76% 29.89 in 6.2 mi NW 16.1 mph - N/A   Mostly Cloudy
3:20 PM 39.2 °F 32.5 °F 30.2 °F 70% 29.92 in 6.2 mi West 10.4 mph - N/A Rain Light Rain Showers
3:50 PM 39.2 °F 35.9 °F 30.2 °F 70% 29.92 in 6.2 mi West 4.6 mph - N/A   Mostly Cloudy
4:20 PM 39.2 °F 33.0 °F 32.0 °F 75% 29.92 in 6.2 mi NW 9.2 mph - N/A Rain Light Rain Showers
4:50 PM 35.6 °F 31.7 °F 32.0 °F 87% 29.95 in 6.2 mi WNW 4.6 mph - N/A Rain , Snow Light Snow Showers
5:20 PM 35.6 °F - 32.0 °F 87% 29.95 in 5.0 mi Calm Calm - N/A Rain , Snow Light Snow Showers
5:50 PM 35.6 °F - 33.8 °F 93% 29.95 in 4.3 mi Calm Calm - N/A Rain , Snow Light Snow Showers
6:20 PM 37.4 °F 32.1 °F 33.8 °F 87% 29.95 in 4.3 mi SE 6.9 mph - N/A Rain , Snow Light Snow Showers
6:50 PM 37.4 °F 28.9 °F 30.2 °F 75% 29.95 in 6.2 mi SW 13.8 mph - N/A   Mostly Cloudy
7:20 PM 37.4 °F 29.8 °F 30.2 °F 75% 29.95 in 6.2 mi SSW 11.5 mph - N/A   Mostly Cloudy
7:50 PM 39.2 °F 32.0 °F 30.2 °F 70% 29.95 in 6.2 mi SW 11.5 mph - N/A   Mostly Cloudy
8:00 PM 38 °F - 30 °F 65% 29.96 in 6 mi SW 11.5 mph - -   Partly Cloudy
8:20 PM 37.4 °F 32.1 °F 33.8 °F 87% 29.95 in 6.2 mi North 6.9 mph - N/A Rain , Snow Light Snow Showers
8:50 PM 35.6 °F - 33.8 °F 93% 29.95 in 6.2 mi Variable 1.2 mph - N/A Rain , Snow Light Snow Showers
9:20 PM 35.6 °F 29.9 °F 32.0 °F 87% 29.95 in 3.7 mi West 6.9 mph - N/A Rain , Snow Light Snow Showers
9:50 PM 33.8 °F 25.3 °F 32.0 °F 93% 29.95 in 1.6 mi SSW 11.5 mph - N/A Snow Snow Showers
10:20 PM 35.6 °F 29.2 °F 33.8 °F 93% 29.92 in 6.2 mi South 8.1 mph - N/A   Mostly Cloudy
10:50 PM 35.6 °F - 32.0 °F 87% 29.92 in 6.2 mi Variable 1.2 mph - N/A   Mostly Cloudy
11:20 PM 35.6 °F - 32.0 °F 87% 29.92 in 0.9 mi Variable 2.3 mph - N/A Snow Snow Showers
11:50 PM 35.6 °F 28.6 °F 32.0 °F 87% 29.92 in 2.5 mi SSW 9.2 mph - N/A Snow Light Snow Showers